EUTELSAT 139 WEST A

Last updated on Tue Apr 07 2026 00:02:53 GMT+0000 (Coordinated Universal Time)

1 28187U 04008A 26094.76475165 .00000142 00000+0 00000+0 0 9995 2 28187 5.6425 72.8685 0004452 24.5269 36.9130 1.00836691 80621
UTC large
Height (km)
Speed (km/s)
/
Latitude / Longitude
Inclination (degrees)
Orbital Period (minutes)
Azimuth
Elevation
Range (km)
Doppler Factor

Next 0 passes for location: London (51.5072 / 0.1276)

No passes found over London.
EUTELSAT 139 WEST A